Regional Weather Roundup
Issued by NWS

Home | Current Version | Previous Version | Text Only | Print | Product List | Glossary On
Versions: 1 2 3 4 5 6 7 8 9 10 11 12 13 14 15 16 17 18 19 20 21 22 23 24 25 26 27 28 29 30 31 32 33 34 35 36 37 38 39 40 41 42 43 44 45 46 47 48 49 50
000
ASUS43 KTOP 261359
RWRKS

WEATHER ROUNDUP FOR KANSAS
NATIONAL WEATHER SERVICE GOODLAND KS
800 AM CST MON JAN 26 2015

NOTE:  "FAIR" INDICATES FEW OR NO CLOUDS BELOW 12,000 FEET WITH NO
SIGNIFICANT WEATHER AND/OR OBSTRUCTIONS TO VISIBILITY.

KSZ001>006-013>018-027>032-041>047-261500-
NORTHWEST KANSAS

CITY           SKY/WX    TMP DP  RH WIND       PRES   REMARKS
GOODLAND       CLEAR     41  29  62 NW17      30.14R
HAYS           CLEAR     37  27  65 W10       30.05R WCI  30
HILL CITY      CLEAR     43  31  62 NW13      30.05R
RUSSELL        CLEAR     35  30  82 W13       30.00S WCI  26
$$

KSZ061>065-074>080-084>089-261500-
SOUTHWEST KANSAS

CITY           SKY/WX    TMP DP  RH WIND       PRES   REMARKS
DODGE CITY     CLEAR     41  28  60 W12       30.09F
ELKHART          N/A    N/A N/A N/A MISG        N/A
GARDEN CITY    CLEAR     36  28  73 W14       30.12R WCI  27
GREAT BEND     CLEAR     39  28  65 W13       30.05R WCI  32
LIBERAL        PTCLDY    36  27  69 NW12      30.17R WCI  27
$$

KSZ066>073-081>083-090>101-261500-
SOUTHEAST KANSAS

CITY           SKY/WX    TMP DP  RH WIND       PRES   REMARKS
CHANUTE        CLEAR     27  26  96 S8        30.06F
COFFEYVILLE    CLEAR     26  25  96 S6        30.10F
HUTCHINSON     CLEAR     30  24  78 W7        30.03S
MEDICINE LODGE   N/A     24  21  88 N6        30.06S
NEWTON         CLEAR     34  25  69 SW14      30.04R WCI  24
PARSONS        CLEAR     24  22  91 S3        30.09F FOG
WICHITA INTL   PTCLDY    32  27  81 SW6       30.05R
WICHITA JABRA  CLEAR     36  28  73 SW15      30.04R WCI  27
WINFIELD       CLEAR     31  27  85 S7        30.06F
$$

KSZ007>012-019>026-033>040-048>060-102>105-261500-
NORTHEAST KANSAS

CITY           SKY/WX    TMP DP  RH WIND       PRES   REMARKS
CONCORDIA        N/A     33  27  78 W16       29.97R WCI  23
EMPORIA        CLEAR     28  26  92 SW6       30.00F
LAWRENCE       CLEAR     25  23  92 S3        30.01F
MANHATTAN      CLEAR     32  29  88 SW7       29.99R
OLATHE IND     CLEAR     29  27  92 SW10      30.02F WCI  20
OLATHE EXE     CLEAR     29  27  92 S6        30.00F
SALINA         CLEAR     34  27  75 S6        30.02R
TOPEKA BILLARD CLEAR     29  26  89 CALM      30.00F
TOPEKA FORBES  CLEAR     30  26  85 S7        29.99F
$$



USA.gov is the U.S. government's official web portal to all federal, state and local government web resources and services.